Location: Bruneau Dunes Observatory
(42.9024°N, 115.6902°W)
Time: 18:55:13
(UTC-07:00)

Cosmos 2333 Rocket - Visible Passes

Search period start: 25 February 2018 00:00
Search period end: 07 March 2018 00:00
Orbit: 839 x 862 km, 70.8° (Epoch: 24 February)

Date Brightness Start Highest point End Pass type
(mag) Time Alt. Az. Time Alt. Az. Time Alt. Az.
02 Mar 2.8 06:42:48 10° SSW 06:48:29 66° ESE 06:54:10 10° NNE visible
03 Mar 2.7 06:30:31 10° SSW 06:36:12 66° ESE 06:41:52 10° NNE visible
04 Mar 2.7 06:18:15 10° SSW 06:23:54 66° ESE 06:29:34 10° NNE visible
05 Mar 2.7 06:05:57 10° SSW 06:11:37 66° ESE 06:17:17 10° NNE visible
06 Mar 2.7 05:53:40 10° SSW 05:59:19 66° ESE 06:05:00 10° NNE visible
